Location: *
(45.4590°N, 16.3650°E)
Time: 01:54:27
(UTC+00:00)

ADEOS Rocket - Pass Details

Date: 17 January 2020
Orbit: 859 x 1306 km, 98.7° (Epoch: 22 February)

Event Time Altitude Azimuth Distance (km) Brightness Sun altitude
Exits shadow 18:14:03 20° 15° (NNE) 2,178 4.6 -26.6°
Maximum altitude 18:18:43 89° 105° (ESE) 1,096 3.1 -27.4°
Drops below altitude 10° 18:25:46 10° 196° (SSW) 3,090 5.8 -28.7°
Sets 18:28:30 0° 196° (SSW) 4,106 6.5 -29.2°
